Retour au catalogue

COSMOS 839 DEB

ActifUNKNOWN
NORAD 10437·DEBRIS·🇷🇺 Russia

Lancé Jul 8, 1976 depuis Plesetsk Cosmodrome

Loading…

Prochains Passages (prochaines 24 heures)

TLE

FraisSource: Space-Track

Époque: Sep 14, 2026, 13:06 UTC

1 10437U 76067N   26257.54604260  .00000017  00000-0  28423-3 0  9990
2 10437  65.8215 295.3992 0662949  34.5249  36.1446 12.31286874252461

Suivez COSMOS 839 DEB en temps réel avec AllMySat

Download on the App Store